SCOUT X-4 DEB, 2088

Orbit data source: Space-Track

SCOUT X-4 DEB, 2088 is space debris in LEO originally from a launch on Fri, 19 Nov 1965 UTC launched from the Wallops Island (WLPIS). Debris objects in space refer to the collection of defunct objects orbiting the Earth. Examples of debris include non-operational satellites, rocket bodies, and fragments generated from explosions, collisions, or faulty payload assembly.

Loading next visibility...
Identifier
2088, 1965-093D
Orbit
LEO
Country
Flag of USUS
Related business
Manufacturer
Unknown
Mission
Spacecraft
Bus & Motor
Unknown
Mass
Unknown
Launch date (UTC)
1965-11-19 (60 years ago)
Launch vehicle
Unknown
Launch site
Wallops Island (WLPIS)
Object type
Payload
Rocket body
Debris
Shape & HBR
Unknown shape, 0.1 m
Radar Cross Section
Small (<0.1 m²)

Expand to show TLE details & history
Last TLE update: 2 days ago

TLE from 2 days ago
0 SCOUT X-4 DEB
1 02088U 65093D   26129.10111164  .00000852  00000-0  19386-3 0  9991
2 02088  59.7151 327.7696 0081570  31.6477 328.9438 14.62241555148181
Epoch: 2026-05-09T02:25Z
TLE epoch observation values (Epoch: 2026-05-09T02:25:36.045Z)
Latitude
-0.00001°
Longitude
64.44602°
Altitude
638.235 km
Speed
7.566 km/s
True Right ascension
21h 51m 04s
True Declination
0° 00' 00"
Sunlit
Object was in daylight at epoch
Visualization orbit readout
Latitude
Unknown
Longitude
Unknown
Altitude
Unknown
Speed
Unknown
Apparent Right ascension
Unknown
Apparent Declination
Unknown
Sunlit
N/A
Visualization observer readout
Local Sidereal Time
23:34:16
Azimuth
Unknown
Elevation
Unknown
Doppler factor
Unknown
Orbital elements
Apogee altitude
742.827 km
Perigee altitude
627.595 km
Semi-major axis
7,063.348 km
Eccentricity
0.00816
Inclination
59.7151°
RAAN
327.7696°
Arg. of periapsis
31.6477°
True anomaly
328.45735°
Mean anomaly
328.9438°
Eccentric anomaly
328.701°
Mean motion
3.65618 °/min
Orbital period
98.46 mins
BSTAR
0.00019386
Loading maneuver chart data...
Computing Atmospheric mass density...
Loading historical data...
Loading historical data...
Loading historical data...
Loading historical data...
Loading historical data...
Loading historical data...
Loading historical data...
Other satellites on launch #93 in the year 1965 (1965-11-19 UTC)

Documentation

Showing up to 5 results
|